Voltar ao catálogo

STARLINK-3895

AtivoComunicaçõesVLEO
NORAD 52583·PAYLOAD·🇺🇸 United States

Lançado May 13, 2022 de Vandenberg Space Force Base

Loading…

Próximas Passagens (próximas 24 horas)

TLE

AtualizadoSource: CelesTrak SupGP

Época: Sep 15, 2026, 02:06 UTC

1 52583C 22051AZ  26258.08798611  .00047375  00000+0  13558-2 0  2583
2 52583  53.1593 341.9004 0000818  79.6586 146.2363 15.35368003    10

Acompanhe STARLINK-3895 em tempo real com AllMySat

Download on the App Store